Flag for India Weather past 2 weeks in Davangere, Karnataka, India

81 °F

Passing clouds.

Feels Like: 82 °F
Forecast: 65 / 86 °F
Wind: 10 mph from East

Location: Bengaluru Internatinal Airport

Current Time: Nov 25, 2015 at 11:49:46 AM

Latest Report: Nov 25, 2015 at 11:00 AM

Visibility: N/A

Pressure: 30.07 "Hg (28.09 "Hg at 598m altitude)

Humidity: 58%

Dew point: 64 °F

Location of DavangereLocation

Historic Weather in Davangere — Graph


Davangere temperature yesterday

Maximum temperature yesterday: 86 °F (at 3:00 PM)
Minimum temperature yesterday: 72 °F (at 5:30 AM)
Average temperature yesterday: 77 °F

Past Weeks' High & Low Weather Summary

High86 °F (Nov 23, 12:00 PM)100% (Nov 10, 9:30 AM)30.15 "Hg (Nov 10, 9:30 AM)
Low66 °F (Nov 14, 3:00 AM)48% (Nov 14, 1:00 PM)29.83 "Hg (Nov 10, 2:00 PM)
Average75 °F96%29.99 "Hg
* Reported Nov 10 9:30 AM — Nov 25 10:00 AM, Davangere, Weather by CustomWeather, © 2015

Note: Actual official high and low records may vary slightly from our data, if they occured in-between our weather recording intervals... More about our weather records


Davangere weather history for previous 24 hours

Time TempWeatherWind HumidityBarometerVisibility
10:00 AM
Wed, Nov 25
81 °FPassing clouds.13 mph54%30.09 "Hg5 mi
9:30 AM77 °FPassing clouds.10 mph65%30.09 "Hg5 mi
9:00 AM75 °FPassing clouds.8 mph94%30.09 "Hg5 mi
8:00 AM70 °FFog.2 mph100%30.07 "Hg1 mi
7:30 AM68 °FRain. Cloudy.5 mph100%30.07 "Hg1 mi
7:00 AM68 °FRain. Cloudy.5 mph100%30.04 "Hg0 mi
6:30 AM68 °FRain. Overcast.3 mph100%30.01 "Hg0 mi
5:30 AM70 °FRain. Overcast.No wind100%30.01 "Hg1 mi
5:00 AM70 °FFog.2 mph100%30.01 "Hg2 mi
4:30 AM72 °FFog.3 mph100%30.01 "Hg2 mi
3:30 AM72 °FFog.5 mph100%30.01 "Hg2 mi
3:00 AM72 °FFog.6 mph100%30.01 "Hg2 mi
2:30 AM73 °FFog.6 mph100%30.01 "Hg1 mi
2:00 AM73 °FFog.8 mph100%30.01 "Hg1 mi
1:30 AM72 °FFog.6 mph100%30.04 "Hg2 mi
1:00 AM72 °FFog.5 mph100%30.04 "Hg2 mi
12:30 AM72 °FFog.3 mph100%30.07 "Hg3 mi
12:00 AM73 °FPassing clouds.6 mph100%30.07 "Hg4 mi
11:00 PM
Tue, Nov 24
73 °FPassing clouds.6 mph100%30.07 "Hg4 mi
10:30 PM73 °FPassing clouds.3 mph100%30.09 "Hg4 mi
9:30 PM75 °FPassing clouds.5 mph100%30.09 "Hg4 mi
9:00 PM75 °FPassing clouds.3 mph100%30.09 "Hg4 mi
8:30 PM77 °FPassing clouds.5 mph100%30.07 "Hg4 mi
8:00 PM77 °FPassing clouds.5 mph100%30.07 "Hg4 mi
7:30 PM77 °FPassing clouds.6 mph100%30.04 "Hg4 mi
7:00 PM79 °FPassing clouds.7 mph94%30.04 "Hg5 mi
6:30 PM79 °FPassing clouds.6 mph94%30.01 "Hg5 mi
6:00 PMN/AScattered clouds.N/AN/AN/AN/A
5:30 PM81 °FScattered clouds.6 mph84%29.98 "HgN/A
5:00 PM82 °FScattered clouds.6 mph79%29.98 "HgN/A
4:30 PM84 °FScattered clouds.7 mph70%29.98 "HgN/A
4:00 PM84 °FScattered clouds.8 mph66%29.98 "HgN/A
3:30 PM84 °FScattered clouds.9 mph70%29.98 "HgN/A
3:00 PM86 °FScattered clouds.9 mph66%29.98 "HgN/A
2:30 PM84 °FScattered clouds.7 mph74%29.98 "HgN/A
2:00 PM84 °FScattered clouds.9 mph66%30.01 "HgN/A
1:30 PM84 °FScattered clouds.10 mph74%30.01 "HgN/A
12:30 PM82 °FScattered clouds.10 mph79%30.04 "HgN/A
11:30 AM82 °FScattered clouds.10 mph84%30.07 "HgN/A
11:00 AM81 °FScattered clouds.10 mph89%30.09 "HgN/A
Weather by CustomWeather, © 2015

See weather overviewHow to use our weather pages